Hourly Data Report for October 08, 2015

All times are specified in Local Standard Time (LST). Add 1 hour to adjust for Daylight Saving Time where and when it is observed.

KAMLOOPS A
BRITISH COLUMBIA

50°42'09.000" N
120°26'55.000" W
345.30 m
1163781
71887
YKA

Download Data

Hourly Data (October 2015)
Hourly Data Report for October 8, 2015
Temp Definition
°C
Dew Point Temp Definition
°C
Rel Hum Definition
%
Wind Dir Definition
10's deg

Wind Spd Definition
km/h
Visibility Definition
km
Stn Press Definition
kPa
Hmdx Definition


Wind Chill Definition


Weather Definition


TIME
00:00 Legend Double Dagger 11.3 10.9 97 35 5 64.4 98.04     LegendNANA
01:00 Legend Double Dagger 10.8 10.5 98 36 1 64.4 98.03     Mostly Cloudy
02:00 Legend Double Dagger 10.3 10.0 98 10 6 64.4 98.08     LegendNANA
03:00 Legend Double Dagger 8.6 8.3 98 29 5 64.4 98.08     LegendNANA
04:00 Legend Double Dagger 9.7 9.4 98 1 5 64.4 98.06     Mostly Cloudy
05:00 Legend Double Dagger 9.0 8.7 98 3 5 64.4 98.09     LegendNANA
06:00 Legend Double Dagger 8.5 8.2 98 36 1 48.3 98.12     LegendNANA
07:00 Legend Double Dagger 10.4 10.1 98 36 1 48.3 98.14     Mostly Cloudy
08:00 Legend Double Dagger 12.2 11.4 95 36 2 48.3 98.16     LegendNANA
09:00 Legend Double Dagger 13.1 11.8 92 0 1 48.3 98.14     LegendNANA
10:00 Legend Double Dagger 14.3 12.4 88 11 5 48.3 98.12     Cloudy
11:00 Legend Double Dagger 15.5 12.1 80 9 4 48.3 98.11     LegendNANA
12:00 Legend Double Dagger 16.0 12.4 79 10 14 48.3 98.05     Rain
13:00 Legend Double Dagger 16.4 12.4 77 9 18 48.3 98.02     Cloudy
14:00 Legend Double Dagger 16.1 12.3 78 8 19 48.3 97.90     LegendNANA
15:00 Legend Double Dagger 16.6 12.4 76 9 21 48.3 97.88     LegendNANA
16:00 Legend Double Dagger 16.3 12.3 77 9 17 48.3 97.87     Cloudy
17:00 Legend Double Dagger 16.0 12.2 78 10 18 64.4 97.81     LegendNANA
18:00 Legend Double Dagger 15.2 12.4 83 10 17 64.4 97.81     LegendNANA
19:00 Legend Double Dagger 15.1 12.1 82 9 17 48.3 97.73     Cloudy
20:00 Legend Double Dagger 15.6 12.2 80 11 17 64.4 97.69     LegendNANA
21:00 Legend Double Dagger 14.6 12.0 84 11 17 48.3 97.70     LegendNANA
22:00 Legend Double Dagger 14.6 12.0 84 10 16 48.3 97.69     Cloudy
23:00 Legend Double Dagger 14.4 12.1 86 10 19 64.4 97.65     LegendNANA

Notes on Data Quality.

Legend

  • E = Estimated
  • M = Missing
  • NA = Not Available
  • ‡ = Partner data that is not subject to review by the National Climate Archives
Date modified: